Regional Weather Roundup
Issued by NWS Kansas City/Pleasant Hill, MO

Home | Current Version | Previous Version | Graphics & Text | Print | Product List | Glossary Off
Versions: 1 2 3 4 5 6 7 8 9 10 11 12 13 14 15 16 17 18 19 20 21 22 23 24 25 26 27 28 29 30 31 32 33 34 35 36 37 38 39 40 41 42 43 44 45 46 47 48 49 50

000
ASUS43 KEAX 301511
RWREAX

WEATHER ROUNDUP FOR EASTERN KANSAS AND NORTHWEST MISSOURI
NATIONAL WEATHER SERVICE KANSAS CITY/PLEASANT HILL MO
900 AM CST FRI JAN 30 2015

KSZ040-057-103>105-MOZ028-029-037-043-301600-
...KANSAS CITY METROPOLITAN AREA...

CITY           SKY/WX    TMP DP  RH WIND       PRES   REMARKS
K.C. INTL      PTSUNNY   25  21  85 NE7       30.54R WCI  17
K.C. DOWNTOWN  SUNNY     27  21  78 E7        30.56R WCI  19
LEES SUMMIT    SUNNY     26  21  81 E8        30.54R WCI  18
OLATHE - IXD   SUNNY     26  22  84 NE5       30.55R WCI  20
OLATHE - OJC   SUNNY     26  22  84 NE6       30.54R WCI  19
LAWRENCE       SUNNY     22  20  92 NW5       30.57R WCI  16

$$

MOZ001>008-011>017-020>025-030>033-038>040-044>046-053-054-301600-
...NORTHERN AND CENTRAL MISSOURI...

CITY           SKY/WX    TMP DP  RH WIND       PRES   REMARKS
ST. JOSEPH     MOSUNNY   23  20  88 CALM      30.57R
MOSBY          MOSUNNY   23  21  93 CALM      30.55F
WARRENSBURG    SUNNY     27  23  86 NE6       30.55F WCI  20
WHITEMAN AFB   SUNNY     26  21  80 NE7       30.54S WCI  19
CLINTON        SUNNY     30  25  80 E9        30.55F WCI  22
SEDALIA        SUNNY     27  21  78 NE7       30.56R WCI  19
WARSAW         NOT AVBL
MARSHALL       SUNNY     27  23  86 NE3       30.57S
CHILLICOTHE      N/A     25  18  74 NE7       30.58R WCI  17
MOBERLY        SUNNY     27  19  74 NE7       30.55F WCI  19
KIRKSVILLE     SUNNY     23  18  81 NE6       30.55R WCI  16

$$

MOZ041-047>049-056>058-063>065-088>090-097-301600-
...EASTERN AND SOUTHERN MISSOURI...

CITY           SKY/WX    TMP DP  RH WIND       PRES   REMARKS
ST. LOUIS INTL MOSUNNY   30  17  58 N10       30.56R WCI  21
SPIRIT OF STL  MOSUNNY   29  18  63 NE6       30.56R WCI  23
COLUMBIA       SUNNY     26  20  77 E7        30.55R WCI  18
JEFFERSON CITY SUNNY     28  21  75 CALM      30.57R
MEXICO         SUNNY     28  25  86 NE6       30.54S WCI  22
HANNIBAL       SUNNY     28  16  59 N6        30.56R WCI  22
ROLLA          PTSUNNY   26  20  77 NE6       30.51R WCI  19
LEBANON        SUNNY     28  23  80 NE10      30.52R WCI  19
OSAGE BEACH    SUNNY     27  19  74 N7        30.55R WCI  19
SPRINGFIELD    MOSUNNY   28  23  81 NE8       30.51R WCI  20
BRANSON        PTSUNNY   32  28  86 NE3       30.52S
NEVADA         SUNNY     28  25  86 NE6       30.56S WCI  22
JOPLIN         MOSUNNY   28  24  85 NE3       30.54S
WEST PLAINS    SUNNY     30  23  75 N9        30.50R WCI  22

$$

IAZ060-094-KSZ022-034>040-054-083-096-NEZ052-066-093-301600-
...KANSAS...SOUTHEAST NEBRASKA AND IOWA...

CITY           SKY/WX    TMP DP  RH WIND       PRES   REMARKS
TOPEKA         MOSUNNY   23  20  88 W5        30.58R WCI  17
MANHATTAN      PTSUNNY   21  18  88 CALM      30.55S
EMPORIA        CLOUDY    23  22  96 CALM      30.53F
CHANUTE        PTSUNNY   26  24  92 CALM      30.55R
WICHITA        CLOUDY    30  25  81 CALM      30.53F
OMAHA          MOSUNNY   22  17  81 S8        30.55R WCI  12
LINCOLN        MOSUNNY   19  15  84 CALM      30.53S
FALLS CITY     MOSUNNY   19  17  92 CALM      30.55S
LAMONI         SUNNY     20  16  84 E6        30.54R WCI  12
DES MOINES     MOSUNNY   21  13  71 NE3       30.56R

$$




USA.gov is the U.S. government's official web portal to all federal, state and local government web resources and services.